Flag for France Weather past 2 weeks in Strasbourg, France

Now
64 °F

Low clouds.


Feels Like: 64 °F
Forecast: 54 / 76 °F
Wind: 1 mph from North

Location: Strasbourg Airport

Current Time: Sep 15, 2014 at 11:43:45 AM

Latest Report: Sep 15, 2014 at 11:00 AM


Visibility: N/A

Pressure: 30.01 "Hg

Humidity: 78%

Dew point: 57 °F

Location of StrasbourgLocation

Historic Weather in Strasbourg — Graph

°F

Strasbourg temperature yesterday

Maximum temperature yesterday: 72 °F (at 1:30 PM)
Minimum temperature yesterday: 59 °F (at 3:30 AM)
Average temperature yesterday: 64 °F

Past Weeks' High & Low Weather Summary

 TemperatureHumidityPressure
High79 °F (Sep 6, 1:30 PM)100% (Sep 1, 12:00 AM)30.15 "Hg (Sep 1, 12:00 AM)
Low50 °F (Sep 11, 5:30 AM)46% (Sep 10, 5:00 PM)29.89 "Hg (Sep 6, 2:30 PM)
Average63 °F81%30.04 "Hg
* Reported Aug 31 10:00 AM — Sep 15 10:00 AM, Strasbourg, Weather by CustomWeather, © 2014

Note: Actual official high and low records may vary slightly from our data, if they occured in-between our weather recording intervals... More about our weather records

Advertising

Strasbourg weather history for previous 24 hours

 ConditionsComfort  
Time TempWeatherWind HumidityBarometerVisibility
10:00 AM
Sep 15
59 °FLow clouds.2 mph94%30.01 "Hg6 mi
9:30 AM57 °FFog.1 mph94%30.01 "Hg3 mi
9:00 AM57 °FFog.2 mph94%30.01 "Hg2 mi
8:30 AM55 °FDense fog.2 mph100%30.01 "Hg1 mi
8:00 AM55 °FFog.3 mph100%30.01 "Hg1 mi
7:30 AM55 °FFog.3 mph100%30.01 "Hg2 mi
7:00 AM57 °FFog.6 mph94%30.01 "Hg3 mi
6:30 AM57 °FLow clouds.6 mph94%30.01 "Hg6 mi
6:00 AM57 °FLow clouds.3 mph94%30.01 "Hg6 mi
5:30 AM55 °FPassing clouds.6 mph100%30.01 "Hg6 mi
5:00 AM55 °FPassing clouds.6 mph94%30.01 "Hg6 mi
4:30 AM55 °FPassing clouds.3 mph94%30.01 "Hg6 mi
4:00 AM57 °FClear.5 mph94%29.98 "HgN/A
3:30 AM57 °FClear.5 mph94%30.01 "HgN/A
3:00 AM57 °FClear.6 mph94%30.01 "HgN/A
2:30 AM57 °FClear.5 mph94%30.01 "HgN/A
2:00 AM57 °FClear.5 mph94%30.01 "HgN/A
1:30 AM59 °FClear.5 mph94%30.01 "HgN/A
1:00 AM59 °FClear.5 mph94%30.01 "HgN/A
12:30 AM59 °FClear.7 mph94%30.01 "HgN/A
12:00 AM61 °FClear.5 mph94%30.01 "HgN/A
11:30 PM
Sep 14
61 °FClear.5 mph94%30.01 "HgN/A
11:00 PM63 °FClear.7 mph88%30.01 "HgN/A
10:30 PM64 °FClear.8 mph83%30.01 "HgN/A
10:00 PM64 °FClear.7 mph83%30.01 "HgN/A
9:30 PM64 °FClear.8 mph83%30.01 "HgN/A
9:00 PM64 °FClear.8 mph83%30.01 "HgN/A
8:30 PM64 °FClear.8 mph83%30.01 "HgN/A
8:00 PM66 °FClear.8 mph78%30.01 "HgN/A
7:30 PM68 °FPassing clouds.10 mph69%30.01 "HgN/A
7:00 PM68 °FScattered clouds.12 mph73%30.01 "HgN/A
6:30 PM68 °FClear.10 mph73%30.01 "HgN/A
6:00 PM70 °FScattered clouds.10 mph64%30.01 "HgN/A
5:30 PM70 °FPartly sunny.10 mph64%30.01 "HgN/A
5:00 PM70 °FOvercast.12 mph69%30.04 "HgN/A
4:30 PM70 °FOvercast.10 mph69%30.04 "HgN/A
4:00 PM72 °FBroken clouds.13 mph65%30.04 "HgN/A
3:30 PM70 °FBroken clouds.10 mph69%30.04 "HgN/A
3:00 PM72 °FBroken clouds.12 mph65%30.04 "HgN/A
2:30 PM70 °FBroken clouds.10 mph64%30.04 "HgN/A
2:00 PM72 °FScattered clouds.8 mph65%30.07 "HgN/A
1:30 PM72 °FScattered clouds.7 mph61%30.07 "HgN/A
1:00 PM70 °FPartly sunny.7 mph69%30.07 "HgN/A
12:30 PM70 °FScattered clouds.7 mph64%30.07 "HgN/A
12:00 PM68 °FPassing clouds.7 mph73%30.07 "HgN/A
11:30 AM66 °FPartly sunny.6 mph78%30.09 "HgN/A
11:00 AM64 °FMore clouds than sun.8 mph83%30.09 "HgN/A
Weather by CustomWeather, © 2014

See weather overviewHow to use our weather pages